Fort Knox, KY

2:57 AM EDT on August 17, 2017 (GMT -0400)
Godman Army Air Field

Weather History for KFTK - December, 2011

Change the Weather History Date:

Thursday, December 22, 2011

  Actual Average Record
Temperature  
Mean Temperature 42 °F -  
Max Temperature 44 °F 39 °F 60 °F (2007)
Min Temperature 41 °F 23 °F 1 °F (2000)
Degree Days  
Heating Degree Days 22    
Moisture  
Dew Point 43 °F    
Average Humidity 98    
Maximum Humidity 100    
Minimum Humidity 88    
Precipitation  
Precipitation 0.50 in - - ()
Sea Level Pressure  
Sea Level Pressure 30.05 in    
Wind  
Wind Speed 3 mph (NW)    
Max Wind Speed 7 mph    
Max Gust Speed -    
Visibility 5 miles    
Events Rain    
Averages and records for this station are not official NWS values.
T = Trace of Precipitation, MM = Missing Value Source: NWS Daily Summary

Daily Weather History Graph

Daily Weather History Graph

Search for Another Location

Airport or City:

Trip Planner

Search our weather history database for the weather conditions in past years. The results will help you decide how hot, cold, wet, or windy it might be!

Date:

Astronomy

Dec. 22, 2011 Rise Set
Actual Time 7:56 AM EST 5:28 PM EST
Civil Twilight 7:26 AM EST 5:57 PM EST
Nautical Twilight 6:53 AM EST 6:31 PM EST
Astronomical Twilight 6:21 AM EST 7:03 PM EST
Moon 5:39 AM EST (12/22) 3:38 PM EST (12/22)
Length of Visible Light 10h 31m
Length of Day
9h 32m
Waning Crescent, 6% of the Moon is Illuminated
Dec 22
Waning Crescent
Dec 24
New
Jan 1
First Quarter
Jan 9
Full
Jan 16
Last Quarter

Hourly Weather History & Observations

Time (EST) Temp. Windchill Dew Point Humidity Pressure Visibility Wind Dir Wind Speed Gust Speed Precip Events Conditions
12:55 AM 43.3 °F 39.9 °F 40.1 °F 88% 30.02 in 10.0 mi West 5.8 mph - N/A   Mostly Cloudy
1:55 AM 42.8 °F 41.1 °F 40.6 °F 92% 30.01 in 10.0 mi WNW 3.5 mph - N/A   Overcast
2:55 AM 43.9 °F 42.3 °F 41.7 °F 92% 30.04 in 10.0 mi SSW 3.5 mph - N/A   Overcast
3:55 AM 43.2 °F - 40.8 °F 91% 30.04 in 10.0 mi Calm Calm - N/A   Overcast
4:55 AM 41.7 °F - 40.6 °F 96% 30.05 in 10.0 mi Calm Calm - N/A   Overcast
5:55 AM 42.3 °F - 41.9 °F 99% 30.06 in 10.0 mi Calm Calm - N/A   Overcast
6:32 AM 42.8 °F - 42.8 °F 100% 30.04 in 10.0 mi ESE 2.3 mph - N/A   Overcast
6:55 AM 42.6 °F - 42.4 °F 99% 30.04 in 10.0 mi Calm Calm - N/A   Overcast
7:55 AM 42.6 °F - 42.4 °F 99% 30.04 in 10.0 mi Calm Calm - N/A   Overcast
8:44 AM 42.8 °F - 42.8 °F 100% 30.06 in 10.0 mi Calm Calm - N/A   Overcast
8:51 AM 42.8 °F - 42.8 °F 100% 30.08 in 7.0 mi SW 2.3 mph - N/A Rain Light Rain
8:55 AM 43.0 °F - 42.8 °F 99% 30.10 in 7.0 mi Calm Calm - 0.00 in Rain Light Rain
9:03 AM 42.8 °F 40.1 °F 42.8 °F 100% 30.09 in 7.0 mi South 4.6 mph - N/A Rain Light Rain
9:27 AM 42.8 °F 40.1 °F 42.8 °F 100% 30.07 in 6.0 mi East 4.6 mph - N/A Rain Light Rain
9:55 AM 43.5 °F 40.9 °F 43.3 °F 99% 30.07 in 5.0 mi ENE 4.6 mph - 0.02 in Rain Light Rain
10:55 AM 44.1 °F 42.5 °F 43.7 °F 99% 30.09 in 6.0 mi ESE 3.5 mph - 0.03 in   Mostly Cloudy
11:05 AM 44.6 °F 43.1 °F 44.6 °F 100% 30.08 in 6.0 mi SSE 3.5 mph - N/A   Mostly Cloudy
11:25 AM 44.6 °F 43.1 °F 44.6 °F 100% 30.07 in 5.0 mi NNW 3.5 mph - N/A Rain Light Rain
11:30 AM 44.6 °F - 44.6 °F 100% 30.07 in 5.0 mi NNW 1.2 mph - N/A   Mostly Cloudy
11:42 AM 44.6 °F - 44.6 °F 100% 30.06 in 5.0 mi NNW 2.3 mph - N/A Rain Light Rain
11:55 AM 44.4 °F 42.0 °F 44.2 °F 99% 30.08 in 5.0 mi NW 4.6 mph - 0.01 in Rain Light Rain
12:16 PM 44.6 °F - 44.6 °F 100% 30.06 in 2.5 mi Calm Calm - N/A Rain Light Rain
12:55 PM 44.6 °F - 44.4 °F 99% 30.04 in 3.0 mi Calm Calm - 0.05 in Rain Light Rain
1:34 PM 44.6 °F 42.2 °F 44.6 °F 100% 30.00 in 1.8 mi NNW 4.6 mph - N/A Rain Light Rain
1:55 PM 44.4 °F 41.2 °F 44.2 °F 99% 30.01 in 1.8 mi NNW 5.8 mph - 0.10 in Rain Rain
2:38 PM 44.6 °F 43.1 °F 42.8 °F 93% 29.95 in 2.0 mi NE 3.5 mph - N/A Rain Light Rain
2:55 PM 44.1 °F 40.8 °F 43.7 °F 99% 29.95 in 2.0 mi Variable 5.8 mph - 0.15 in Rain Rain
3:55 PM 44.4 °F 42.9 °F 44.2 °F 99% 29.96 in 2.0 mi NNE 3.5 mph - 0.07 in Rain Light Rain
4:55 PM 44.2 °F - 44.1 °F 99% 30.00 in 1.0 mi Calm Calm - 0.05 in Rain Light Rain
5:30 PM 44.6 °F - 44.6 °F 100% 29.96 in 2.0 mi NNE 2.3 mph - N/A   Overcast
5:48 PM 44.6 °F 43.1 °F 44.6 °F 100% 29.98 in 3.0 mi NW 3.5 mph - N/A   Overcast
5:55 PM 44.1 °F - 43.9 °F 99% 30.00 in 3.0 mi Calm Calm - 0.00 in   Overcast
6:55 PM 44.1 °F 41.5 °F 43.9 °F 99% 30.06 in 3.0 mi WNW 4.6 mph - 0.00 in Rain Light Rain
7:20 PM 44.6 °F 42.2 °F 44.6 °F 100% 30.04 in 4.0 mi WNW 4.6 mph - N/A Rain Light Rain
7:36 PM 44.6 °F 40.7 °F 44.6 °F 100% 30.05 in 1.5 mi WNW 6.9 mph - N/A Rain Light Rain
7:55 PM 44.2 °F 41.0 °F 44.1 °F 99% 30.07 in 3.0 mi NW 5.8 mph - 0.02 in Rain Light Rain
8:55 PM 44.2 °F 42.7 °F 44.1 °F 99% 30.07 in 3.0 mi North 3.5 mph - 0.00 in   Light Drizzle
9:34 PM 44.6 °F 43.1 °F 42.8 °F 93% 30.06 in 2.0 mi West 3.5 mph - N/A   Overcast
9:55 PM 43.7 °F 39.7 °F 43.5 °F 99% 30.10 in 1.5 mi WNW 6.9 mph - N/A   Overcast
10:27 PM 44.6 °F 41.4 °F 44.6 °F 100% 30.09 in 1.5 mi WNW 5.8 mph - N/A   Light Drizzle
10:55 PM 44.1 °F 40.8 °F 43.9 °F 99% 30.12 in 1.5 mi NW 5.8 mph - N/A   Overcast
11:55 PM 43.9 °F 40.5 °F 43.7 °F 99% 30.13 in 1.5 mi NW 5.8 mph - N/A   Overcast